Simultaneous Nadir Overpasses (SNOs) Predictions

Prediction of SNOs between GOES-17 and NOAA-20 Satellite Orbit:

Table of predicted SNOs for the next 14.0 days since TLE Epoch: 9/17/2022
Index Date Time (GOES-17) GOES-17 Lat,Lon NOAA-20 Lat,Lon Distance(km) Time Diff (sec)
1 09/17/2022 10:49:31 0.06,-137.30 0.95,-141.35 461.40 80
2 09/18/2022 10:33:27 0.06,-137.29 -0.05,-136.82 53.70 80
3 09/20/2022 22:34:00 -0.05,-137.26 -0.11,-137.60 38.35 80
4 09/21/2022 22:17:55 -0.04,-137.25 0.89,-133.07 476.37 80
5 09/23/2022 10:37:04 0.04,-137.22 0.27,-138.34 127.15 80
6 09/24/2022 10:20:59 0.04,-137.21 -0.73,-133.81 387.35 80
7 09/25/2022 22:40:15 -0.03,-137.18 -0.49,-139.11 220.39 80
8 09/26/2022 22:24:11 -0.03,-137.16 0.52,-134.58 293.94 80
9 09/28/2022 10:43:19 0.03,-137.13 0.64,-139.86 310.41 80
10 09/29/2022 10:27:15 0.03,-137.11 -0.37,-135.33 203.25 80
11 09/30/2022 22:46:31 -0.03,-137.07 -0.84,-140.63 406.28 80
